[[{"header":{"parameterUnit":"m.s-1","parameterCategory":1,"la1":30.2991,"la2":30.254,"lo1":-89.0895,"lo2":-89.0444,"dy":0.0017,"dx":0.0017,"nx":28,"ny":28,"refTime":"2024-08-19T03:00:00:Z","depth":0,"parameterNumber":2,"parameterNumberName":"U-component_of_WINDS"},"data":[0,0,0,0,0,0,0,0,0,0,0,0,0,0,0,0,0,0,0,0,0,0,0,0,0,0,0,0,0,0,0,0,0,0,0,0,0,0,0,0,0,0,0,0,0,0,0,0,0,0,0,0,0,0,0,0,0,0,1.1225,1.1225,0,1.1263,1.1264,1.1264,1.1275,1.1275,1.1274,1.1274,1.1315,1.1316,1.1318,0,0,0,0,0,0,0,0,0,0,0,0,0,1.1166,1.1167,1.1225,1.1225,1.1226,1.1263,1.1264,1.1264,1.1275,1.1275,1.1274,1.1274,1.1315,1.1316,1.1318,0,0,0,0,0,0,0,0,0,0,0,0,0,1.1196,1.1167,1.1225,1.1236,1.1237,1.1263,1.1264,1.1265,1.1275,1.1275,1.1274,1.1274,1.1314,1.1316,1.1318,1.1337,0,0,1.1324,1.1325,0,0,0,0,0,0,0,0,1.1195,1.1199,1.1234,1.1235,1.1236,1.1264,1.1258,1.1289,1.1275,1.1261,1.1274,1.1274,1.1298,1.1302,1.131,1.1339,1.134,1.1324,1.1325,1.1326,1.1327,0,0,0,0,0,0,0,1.1192,1.1197,1.124,1.1234,1.1236,1.124,1.1244,1.1264,1.1281,1.1262,1.1263,1.1267,1.1299,1.1308,1.1311,1.1341,1.1324,1.1326,1.1327,1.1328,1.1393,1.1393,0,0,0,0,0,0,1.1188,1.1195,1.1239,1.1241,1.1214,1.1242,1.1246,1.1256,1.1281,1.1284,1.1267,1.1267,1.1305,1.1308,1.1312,1.1339,1.1326,1.1328,1.1329,1.1392,1.1393,1.1393,0,0,0,0,0,0,1.1187,1.1192,1.1237,1.1219,1.1225,1.1243,1.1254,1.1256,1.1265,1.1285,1.1288,1.1273,1.1304,1.1309,1.1332,1.134,1.1329,1.133,1.1392,1.1392,1.1393,1.139,0,0,0,0,0,0,1.1185,1.1191,1.1197,1.1219,1.1226,1.1255,1.1254,1.1257,1.1268,1.1269,1.1291,1.1294,1.1305,1.1329,1.1334,1.1343,1.1332,1.1391,1.1392,1.1393,1.139,1.1391,1.1392,0,0,0,0,0,1.1183,1.1194,1.1197,1.1202,1.1233,1.1255,1.1259,1.127,1.1269,1.1276,1.129,1.1293,1.1339,1.1331,1.1336,1.1346,1.139,1.1392,1.1393,1.1389,1.1391,1.1392,0,0,0,0,0,0,1.1172,1.1197,1.1201,1.1219,1.1235,1.1257,1.1265,1.1271,1.1288,1.1288,1.1302,1.1307,1.1329,1.134,1.1331,1.1369,1.1365,1.1367,1.136,1.1362,1.1363,1.136,1.1334,0,0,0,0,0,1.1172,1.1186,1.1208,1.1222,1.123,1.1247,1.1256,1.1264,1.1282,1.1288,1.1303,1.1321,1.134,1.1351,1.1369,1.1392,1.1399,1.1402,1.1403,1.1404,1.1406,1.1423,1.1426,1.1398,1.1398,1.1398,0,0,1.1171,1.1187,1.1195,1.122,1.1233,1.125,1.1252,1.1268,1.1282,1.1291,1.1313,1.1326,1.1347,1.137,1.1381,1.138,1.1416,1.1406,1.1406,1.1408,1.1425,1.1428,1.143,1.1399,1.1398,1.1398,0,0,1.1179,1.1191,1.1206,1.122,1.1241,1.1253,1.1257,1.1279,1.1288,1.1311,1.1319,1.1336,1.1367,1.1383,1.1395,1.1415,1.142,1.142,1.1426,1.1443,1.1445,1.1447,1.1457,1.146,1.1422,1.1422,1.1422,0,1.1176,1.12,1.1213,1.123,1.1243,1.1254,1.1271,1.1284,1.131,1.1319,1.1317,1.136,1.1374,1.1403,1.1409,1.1417,1.1425,1.1417,1.1444,1.1446,1.1448,1.1458,1.1461,1.1422,1.1422,1.1422,1.1422,0,1.1197,1.1214,1.1224,1.125,1.1263,1.128,1.1298,1.1311,1.1319,1.1332,1.1358,1.1377,1.1401,1.1408,1.1415,1.144,1.144,1.1441,1.1437,1.1451,1.146,1.1464,1.1422,1.1422,1.1422,1.1422,0,0,1.1195,1.1231,1.1235,1.1249,1.1275,1.1289,1.1309,1.1333,1.1345,1.1364,1.1382,1.1411,1.1414,1.1428,1.1438,1.1452,1.1471,1.1452,1.1453,1.1457,1.1504,1.1503,1.1507,1.1475,1.1476,1.1477,1.1503,0,1.1208,1.1241,1.1256,1.1284,1.1303,1.1316,1.1334,1.1353,1.1367,1.1386,1.1402,1.1423,1.1424,1.1433,1.1448,1.1465,1.1481,1.1464,1.1495,1.1496,1.149,1.1511,1.151,1.1534,1.1506,1.1507,1.1507,0,1.1225,1.1246,1.1276,1.1304,1.1313,1.1328,1.1354,1.1371,1.1395,1.1405,1.1423,1.1433,1.1458,1.1454,1.1489,1.1477,1.1492,1.1503,1.1504,1.1508,1.1502,1.1517,1.1541,1.1545,1.1513,1.1512,1.1512,0,1.1224,1.1259,1.1283,1.1294,1.1327,1.1338,1.1353,1.1376,1.1392,1.1415,1.1426,1.1451,1.1465,1.1486,1.1505,1.15,1.154,1.1537,1.1551,1.1551,1.1558,1.1558,1.1586,1.1566,1.1566,1.1566,1.1566,0,1.1236,1.1254,1.1283,1.1297,1.132,1.1339,1.1362,1.1377,1.14,1.142,1.1433,1.1452,1.1474,1.1497,1.1512,1.1542,1.1548,1.1558,1.1562,1.1557,1.1556,1.1567,1.1566,1.1567,1.1567,1.1566,1.1566,0,1.1237,1.1256,1.1284,1.1314,1.1323,1.1339,1.1366,1.1382,1.1399,1.1424,1.1432,1.1458,1.1486,1.1507,1.1543,1.1553,1.1585,1.1588,1.1577,1.1579,1.1593,1.1592,1.163,1.1637,1.1611,1.1611,1.1611,0,1.1243,1.1258,1.1292,1.1306,1.1321,1.1344,1.136,1.1381,1.1398,1.143,1.1443,1.1473,1.1497,1.1542,1.1565,1.1594,1.16,1.1611,1.1604,1.16,1.1602,1.1602,1.1605,1.1612,1.1612,1.1612,1.1612,0,1.1254,1.1264,1.1286,1.1314,1.1334,1.1356,1.1379,1.1391,1.1416,1.1436,1.1465,1.1484,1.1523,1.1553,1.1586,1.1603,1.1613,1.1615,1.162,1.1615,1.1609,1.1615,1.1581,1.1613,1.1613,1.1613,1.1613,1.1613,1.1259,1.1275,1.1302,1.1328,1.1348,1.1371,1.1389,1.1409,1.1434,1.1467,1.1478,1.151,1.1539,1.1584,1.1602,1.1629,1.1629,1.1636,1.1638,1.1639,1.164,1.1605,1.1635,1.1635,1.1635,1.1635,1.1635,0,1.1272,1.1291,1.1315,1.1348,1.137,1.1378,1.1406,1.1424,1.1451,1.1477,1.1502,1.1539,1.157,1.1597,1.163,1.1647,1.1653,1.1655,1.1654,1.1659,1.1637,1.163,1.165,1.165,1.165,1.165,1.165,1.165,1.128,1.1308,1.1323,1.1363,1.1383,1.1413,1.1429,1.1451,1.1473,1.1513,1.1539,1.1557,1.1586,1.1622,1.1652,1.166,1.1672,1.1673,1.1683,1.1662,1.166,1.1658,1.1652,1.1676,1.1676,1.1702,1.1703,1.1703]},{"header":{"parameterUnit":"m.s-1","parameterCategory":1,"la1":30.2991,"la2":30.254,"lo1":-89.0895,"lo2":-89.0444,"dy":0.0017,"dx":0.0017,"nx":28,"ny":28,"refTime":"2024-08-19T03:00:00:Z","depth":0,"parameterNumber":3,"parameterNumberName":"V-component_of_WINDS"},"data":[0,0,0,0,0,0,0,0,0,0,0,0,0,0,0,0,0,0,0,0,0,0,0,0,0,0,0,0,0,0,0,0,0,0,0,0,0,0,0,0,0,0,0,0,0,0,0,0,0,0,0,0,0,0,0,0,0,0,-2.1507,-2.1506,0,-2.1378,-2.1376,-2.1375,-2.1413,-2.1416,-2.1418,-2.1421,-2.1281,-2.1274,-2.1268,0,0,0,0,0,0,0,0,0,0,0,0,0,-2.178,-2.1774,-2.1507,-2.1505,-2.1504,-2.1378,-2.1376,-2.1374,-2.1412,-2.1416,-2.1419,-2.1422,-2.1283,-2.1275,-2.1268,0,0,0,0,0,0,0,0,0,0,0,0,0,-2.1657,-2.1773,-2.1507,-2.1508,-2.1507,-2.1378,-2.1376,-2.1374,-2.1412,-2.1416,-2.142,-2.1424,-2.1285,-2.1276,-2.1267,-2.1128,0,0,-2.1238,-2.1234,0,0,0,0,0,0,0,0,-2.1663,-2.1646,-2.1509,-2.1508,-2.1506,-2.1416,-2.1421,-2.1291,-2.1411,-2.1447,-2.1421,-2.1426,-2.1322,-2.131,-2.1276,-2.1121,-2.1115,-2.1237,-2.1231,-2.1227,-2.1225,0,0,0,0,0,0,0,-2.1672,-2.1652,-2.1456,-2.1507,-2.1505,-2.1512,-2.1499,-2.1396,-2.1363,-2.1445,-2.1447,-2.1432,-2.1322,-2.1285,-2.1273,-2.1113,-2.1237,-2.1229,-2.1223,-2.122,-2.0835,-2.0831,0,0,0,0,0,0,-2.1683,-2.1659,-2.146,-2.1452,-2.1597,-2.1504,-2.1489,-2.144,-2.1364,-2.1357,-2.1428,-2.1434,-2.1299,-2.1284,-2.1268,-2.1098,-2.1228,-2.1219,-2.1213,-2.084,-2.0834,-2.0829,0,0,0,0,0,0,-2.1688,-2.1665,-2.1465,-2.1556,-2.1531,-2.1495,-2.144,-2.1436,-2.14,-2.1352,-2.1346,-2.1398,-2.1302,-2.1282,-2.1162,-2.1094,-2.1215,-2.1206,-2.0845,-2.0838,-2.0832,-2.0758,0,0,0,0,0,0,-2.1696,-2.1666,-2.1615,-2.1555,-2.1526,-2.1363,-2.1436,-2.143,-2.1384,-2.139,-2.1322,-2.1314,-2.1303,-2.1176,-2.1153,-2.1083,-2.1199,-2.0851,-2.0842,-2.0834,-2.0767,-2.075,-2.0736,0,0,0,0,0,-2.1706,-2.1598,-2.1612,-2.1588,-2.1461,-2.1359,-2.1342,-2.1334,-2.1379,-2.1325,-2.1295,-2.1316,-2.1106,-2.1164,-2.1138,-2.1064,-2.0855,-2.0844,-2.0834,-2.0774,-2.0753,-2.0736,0,0,0,0,0,0,-2.1648,-2.159,-2.1605,-2.1475,-2.1422,-2.1366,-2.1298,-2.1313,-2.1244,-2.1252,-2.1243,-2.1228,-2.1105,-2.1073,-2.1138,-2.0925,-2.0987,-2.0971,-2.0949,-2.093,-2.0914,-2.0923,-2.1191,0,0,0,0,0,-2.1621,-2.1545,-2.1498,-2.1388,-2.1361,-2.1334,-2.1289,-2.1288,-2.1231,-2.1208,-2.1169,-2.1111,-2.1032,-2.098,-2.0904,-2.0764,-2.0748,-2.07,-2.0685,-2.0673,-2.0657,-2.0578,-2.0556,-2.0795,-2.0795,-2.0795,0,0,-2.1562,-2.1522,-2.1474,-2.1375,-2.1334,-2.1252,-2.1314,-2.1226,-2.1165,-2.1194,-2.1079,-2.1048,-2.0983,-2.0852,-2.0792,-2.0822,-2.0588,-2.0659,-2.065,-2.0641,-2.0565,-2.0543,-2.0522,-2.0788,-2.0789,-2.0791,0,0,-2.1414,-2.1377,-2.128,-2.1238,-2.1176,-2.1159,-2.1136,-2.1078,-2.1059,-2.0944,-2.0964,-2.089,-2.0755,-2.0707,-2.0665,-2.05,-2.0516,-2.0476,-2.0392,-2.0315,-2.0296,-2.028,-2.0217,-2.0196,-2.0462,-2.0461,-2.0461,0,-2.1348,-2.1229,-2.1228,-2.1138,-2.1093,-2.1119,-2.1019,-2.0977,-2.0892,-2.0859,-2.0895,-2.0725,-2.0683,-2.054,-2.05,-2.0466,-2.0437,-2.0481,-2.03,-2.0283,-2.0267,-2.0208,-2.0185,-2.0457,-2.0457,-2.0458,-2.0458,0,-2.115,-2.1067,-2.0996,-2.0916,-2.0864,-2.0769,-2.0751,-2.0697,-2.0701,-2.068,-2.0562,-2.0513,-2.0427,-2.0394,-2.0396,-2.0251,-2.0271,-2.0303,-2.0364,-2.024,-2.0183,-2.0161,-2.045,-2.0451,-2.0453,-2.0454,0,0,-2.0958,-2.088,-2.0854,-2.0817,-2.0751,-2.0685,-2.0592,-2.0511,-2.0464,-2.0405,-2.0324,-2.0209,-2.0239,-2.0191,-2.0188,-2.0121,-1.999,-2.0162,-2.016,-2.0128,-1.9823,-1.9797,-1.9771,-2.0003,-1.9998,-1.9995,-1.9828,0,-2.0802,-2.0639,-2.0635,-2.0485,-2.0406,-2.0431,-2.0349,-2.0298,-2.0276,-2.0204,-2.018,-2.0097,-2.0145,-2.0116,-2.0051,-2.002,-1.9928,-2.0032,-1.9923,-1.9919,-1.9935,-1.9742,-1.9713,-1.9558,-1.9806,-1.9803,-1.98,0,-2.0596,-2.0533,-2.0375,-2.032,-2.0287,-2.0213,-2.0138,-2.0071,-2.0013,-2.0002,-1.995,-1.9957,-1.9858,-1.9926,-1.9789,-1.986,-1.9815,-1.9794,-1.9787,-1.9773,-1.9849,-1.9719,-1.9508,-1.9483,-1.9766,-1.9769,-1.9771,0,-2.0468,-2.0344,-2.0233,-2.0201,-2.0135,-2.0082,-2.0051,-1.9998,-1.9949,-1.9883,-1.9851,-1.9774,-1.9731,-1.967,-1.9655,-1.9706,-1.9516,-1.9584,-1.9501,-1.9501,-1.9456,-1.9458,-1.9231,-1.9434,-1.9434,-1.9435,-1.9435,0,-2.0291,-2.0192,-2.0174,-2.0105,-1.9995,-1.9992,-1.9882,-1.9855,-1.9808,-1.9732,-1.9749,-1.9677,-1.9664,-1.9589,-1.9577,-1.9463,-1.9444,-1.943,-1.9427,-1.9426,-1.9427,-1.9394,-1.9403,-1.9429,-1.943,-1.9431,-1.9432,0,-2.0127,-2.0111,-1.9991,-1.994,-1.9924,-1.9845,-1.9799,-1.9732,-1.9713,-1.9617,-1.9594,-1.9563,-1.9476,-1.9457,-1.9352,-1.9344,-1.9208,-1.9218,-1.9228,-1.9227,-1.9144,-1.9151,-1.8884,-1.8848,-1.9078,-1.9076,-1.9074,0,-2.0013,-1.9938,-1.9879,-1.9831,-1.9798,-1.972,-1.9672,-1.9665,-1.9613,-1.9542,-1.9483,-1.9398,-1.9329,-1.9188,-1.9154,-1.9074,-1.9079,-1.8992,-1.9067,-1.9068,-1.9074,-1.9077,-1.9068,-1.8976,-1.8973,-1.8971,-1.897,0,-1.9811,-1.9808,-1.9738,-1.9665,-1.9606,-1.9548,-1.9492,-1.9451,-1.9437,-1.9378,-1.929,-1.9237,-1.9131,-1.9045,-1.8965,-1.8931,-1.8946,-1.8947,-1.8923,-1.8919,-1.8926,-1.8918,-1.9184,-1.8952,-1.8954,-1.8955,-1.8956,-1.8957,-1.9666,-1.96,-1.9548,-1.9469,-1.9428,-1.9375,-1.9309,-1.9284,-1.9211,-1.9126,-1.9127,-1.9029,-1.8973,-1.8868,-1.8829,-1.8751,-1.8778,-1.8744,-1.8734,-1.8725,-1.8716,-1.8943,-1.8737,-1.8737,-1.8738,-1.8738,-1.8739,0,-1.9462,-1.9431,-1.9359,-1.9281,-1.9219,-1.9243,-1.9183,-1.9128,-1.9043,-1.8991,-1.8923,-1.8821,-1.8738,-1.87,-1.8617,-1.8562,-1.8567,-1.854,-1.8542,-1.8533,-1.8698,-1.8726,-1.8538,-1.8538,-1.8538,-1.8538,-1.8538,-1.8538,-1.9349,-1.9238,-1.9228,-1.9095,-1.9064,-1.8971,-1.8934,-1.8885,-1.8843,-1.8729,-1.8661,-1.8638,-1.8589,-1.8504,-1.8428,-1.8419,-1.8386,-1.8355,-1.8348,-1.8502,-1.8522,-1.8541,-1.8567,-1.8349,-1.8348,-1.8189,-1.8188,-1.8187]}]]